STARLINK-33556, 62109

Orbit data source: Space-Track

STARLINK-33556, 62109 is a payload satellite owned by SpaceX/Seattle (US) in LEO that was launched on Mon, 25 Nov 2024 UTC via an FALCON 9 launch vehicle from the Air Force Eastern Test Range (AFETR). Payload-class satellites include a variety of spacecraft equipped with specific instruments for various scientific and technological missions. These include communications satellites like Starlink; space stations such as the ISS; scientific satellites like the Hubble; Earth observation satellites from companies like Planet Labs, Umbra, and HawkEye 360; GPS; miniature CubeSats for education and research; and military/defense satellites.

Loading next visibility...
Identifier
62109, 2024-220X
Orbit
LEO
Country
Flag of USUS
Related business
Manufacturer
SpaceX/Seattle
Mission
Operational Commercial Communications
Bus & Motor
STARLINK V2MO, Unknown motor
Mass
530 kg wet, ~500 kg dry
Launch date (UTC)
2024-11-25 (2 years ago)
Launch vehicle
FALCON 9
Launch site
Air Force Eastern Test Range (AFETR)
Object type
Payload
Rocket body
Debris
Shape & HBR
Box + 2 Pan, 17.7 m
Radar Cross Section
36.964 m², Large (>1 m²)

Expand to show TLE details & history
Last TLE update: 9 hours ago

TLE from 9 hours ago
0 STARLINK-33556
1 62109U 24220X   26171.47791625  .00014231  00000-0  52547-3 0  9993
2 62109  43.0018 344.8492 0001393 245.2692 114.8015 15.27593090 88935
Epoch: 2026-06-20T11:28Z
TLE epoch observation values (Epoch: 2026-06-20T11:28:11.964Z)
Latitude
0.00002°
Longitude
-95.8926°
Altitude
483.186 km
Speed
7.625 km/s
True Right ascension
22h 59m 23s
True Declination
0° 00' 00"
Sunlit
Object was in daylight at epoch
Visualization orbit readout
Latitude
Unknown
Longitude
Unknown
Altitude
Unknown
Speed
Unknown
Apparent Right ascension
Unknown
Apparent Declination
Unknown
Sunlit
N/A
Visualization observer readout
Local Sidereal Time
07:16:55
Azimuth
Unknown
Elevation
Unknown
Doppler factor
Unknown
Orbital elements
Apogee altitude
485.911 km
Perigee altitude
483.999 km
Semi-major axis
6,863.092 km
Eccentricity
0.00014
Inclination
43.0018°
RAAN
344.8492°
Arg. of periapsis
245.2692°
True anomaly
114.81599°
Mean anomaly
114.8015°
Eccentric anomaly
114.80874°
Mean motion
3.81736 °/min
Orbital period
94.31 mins
BSTAR
0.00052547
Loading maneuver chart data...
Computing Atmospheric mass density...
Loading historical data...
Loading historical data...
Loading historical data...
Loading historical data...
Loading historical data...
Loading historical data...
Loading historical data...

Documentation

Showing up to 5 results
|